AirNav   Bose ProFlight Aviation Headset
 
 765 users online  

1J9 Fort Walton Beach Airport
Navarre, Florida, USA

GOING TO NAVARRE?


FAA INFORMATION EFFECTIVE 16 AUGUST 2018

Location

FAA Identifier: 1J9
Lat/Long: 30-24-22.7000N / 086-49-45.1000W
30-24.378333N / 086-49.751667W
30.4063056 / -86.8291944
(estimated)
Elevation: 22 ft. / 6.7 m (surveyed)
Variation: 01E (1985)
From city: 2 miles E of NAVARRE, FL
Time zone: UTC -5 (UTC -6 during Standard Time)
Zip code: 32566

Airport Operations

Airport use: Open to the public
Activation date: 05/1969
Control tower: no
ARTCC: JACKSONVILLE CENTER
FSS: GAINESVILLE FLIGHT SERVICE STATION
NOTAMs facility: GNV (NOTAM-D service available)
Attendance: 1000-DUSK
Wind indicator: yes
Segmented circle: no

Airport Communications

CTAF/UNICOM: 122.7
WX ASOS at DTS (19 nm E): PHONE 850-654-7128
WX ASOS at PNS (19 nm W): PHONE 850-436-4799

Nearby radio navigation aids

VOR radial/distance  VOR name  Freq  Var
CEWr194/26.4CRESTVIEW VORTAC115.9003E
NUNr098/(26.5)SAUFLEY VOR108.8001E

 
NDB name  Hdg/Dist  Freq  Var  ID
PICKENS098/18.232602WPKZ .--. -.- --..

Airport Services

Airframe service: NONE
Powerplant service: NONE
Bottled oxygen: NONE
Bulk oxygen: NONE

Runway Information

Runway 18/36

Dimensions: 2100 x 65 ft. / 640 x 20 m
Surface: turf, in poor condition
RWY 18/36 BARE SPOTS SOFT & SANDY SOUTH OF RWYS MID POINT.
Gradient: N
Operational restrictions: ALL TKOFS RY 18; ALL LNDGS RY 36.
RUNWAY 18  RUNWAY 36
Latitude: 30-24.551792N30-24.205292N
Longitude: 086-49.750332W086-49.754368W
Elevation: 22.0 ft.2.0 ft.
Gradient: 1.0% UP
Traffic pattern: leftleft
Runway heading: 180 magnetic, 181 true000 magnetic, 001 true
Obstructions: 40 ft. tree, 280 ft. from runway, 85 ft. left of centerline, 7:1 slope to clear
RY 18 20:1 APPROACH TO THE DSPLCD THLD.
6 ft. brush, 170 ft. from runway, 40 ft. right of centerline, 32:1 slope to clear
BRUSH IN PRIMARY SFC & TRANSITION ZONES FY 36 +/- 100 FT FROM CNTRLN. ACFT PARKED 80 FT FROM CNTRLN.

Airport Ownership and Management from official FAA records

Ownership: Privately-owned
Owner: BOOMER AVIATION INC.
P.O. BOX 1075
FORT WALTON, FL 32549
Phone 850-244-1313
CONTACT PERSON; SANDY WILLIAMS, 850-244-1313
Manager: SANDY WILLIAMS
P.O. BOX 1075, P.O. BOX
FT WALTON BEACH, FL 32549
Phone (850) 244-1313

Airport Operational Statistics

Aircraft based on the field: 8
Single engine airplanes: 8
    
Aircraft operations: avg 22/day *
91% local general aviation
9% transient general aviation
* for 12-month period ending 15 March 2017

Additional Remarks

RY 18/36 SLOPES TO 3 FT ELEVATION AT SOUTH END.
BANNER TOWING.
RY 18/36 MARKED WITH WHITE CONES.
ARPT CLSD TO HELICOPTERS MORE THAN 2500 LBS.

Instrument Procedures

There are no published instrument procedures at 1J9.

Some nearby airports with instrument procedures:

KHRT - Hurlburt Field Airport (7 nm E)
2R4 - Peter Prince Field Airport (16 nm NW)
KVPS - Eglin Air Force Base/Destin-Fort Walton Beach Airport (16 nm E)
KDTS - Destin Executive Airport (19 nm E)
KPNS - Pensacola International Airport (19 nm W)
KNDZ - Whiting Field Naval Air Station South (20 nm NW)
 
Loc | Ops | Rwys | IFR | FBO | Links
Com | Nav | Svcs | Stats | Notes


 
Area around 1J9 (Fort Walton Beach Airport)
 
Road maps at: MapQuest Bing Google
 
Aerial photo
WARNING: Photo may not be current or correct
Aerial photo of 1J9 (Fort Walton Beach Airport)
Photo by Scott Jackson - PhotosFlorida.com
Photo taken 04-Oct-2007
looking north

Do you have a better or more recent aerial photo of Fort Walton Beach Airport that you would like to share? If so, please send us your photo.

 
Sectional chart

 
Airport distance calculator
Flying to Fort Walton Beach Airport? Find the distance to fly.

From to 1J9

Sunrise and sunset
Times for 20-Aug-2018
 Local
(UTC-5)
 Zulu
(UTC)
Morning civil twilight05:5310:53
Sunrise06:1811:18
Sunset19:2300:23
Evening civil twilight19:4800:48

Current date and time
Zulu (UTC)  20-Aug-2018 11:58:46
Local (UTC-5)  20-Aug-2018 06:58:46
 
METAR
KHRT 
8nm E 
201056Z 00000KT 10SM FEW025 24/20 A3001 RMK AO2A SLP164 T02440199 $
2R4 
16nm NW 
SuperAWOS
201135Z AUTO 00000KT 24/23 A3002
KVPS 
17nm E 
201055Z 00000KT 10SM FEW018 FEW120 SCT250 24/23 A3002 RMK AO2A SLP171 T02430227 $
KDTS 
19nm E 
201153Z 00000KT 10SM FEW020 28/23 A3004 RMK AO2 SLP173 70026 T02830233 10283 20278 53008
KPNS 
19nm W 
201153Z 00000KT 10SM CLR 26/24 A3004 RMK AO2 SLP172 60000 70019 T02560239 10261 20250 53006
TAF
KHRT 
8nm E 
200900Z 2009/2115 23006KT 9999 BKN020 QNH3000INS BECMG 2009/2010 17009KT 8000 -SHRA BKN030 QNH3003INS TEMPO 2013/2016 VRB10G15KT 6000 -TSRA BKN030CB BECMG 2016/2017 20006KT 9999 NSW SCT030 BKN120 QNH3002INS BECMG 2105/2106 24006KT 9999 SCT010 BKN020 QNH3004INS TX31/2020Z TN25/2109Z
KVPS 
17nm E 
200900Z 2009/2115 22006KT 9999 FEW018 SCT046 QNH3001INS BECMG 2011/2012 21006KT 9000 VCTS SCT025CB BKN120 BKN200 QNH3002INS BECMG 2014/2015 VRB10G25KT 4800 -TSRA BKN020CB BKN120 QNH3004INS BECMG 2022/2023 22006KT 9999 NSW SCT030 SCT150 QNH3005INS BECMG 2113/2114 23006KT 9000 VCTS SCT025CB QNH3005INS TX31/2017Z TN25/2011Z
KPNS 
19nm W 
201121Z 2012/2112 21003KT P6SM VCSH SCT030 BKN100 TEMPO 2012/2016 5SM TSRA BKN020CB FM201600 20009KT P6SM -TSRA SCT020 BKN040CB FM202200 20009KT P6SM VCTS SCT040CB BKN150 FM210600 23004KT P6SM BKN250
NOTAMs
Click for the latest NOTAMs
NOTAMs are issued by the DoD/FAA and will open in a separate window not controlled by AirNav.

 

 
 

Would you like to see your business listed on this page?

 If your business provides an interesting product or service to pilots, flight crews, aircraft, or users of the Fort Walton Beach Airport, you should consider listing it here.  To start the listing process, click on the button below
 
Add a business
 

Other Pages about Fort Walton Beach Airport

Update a link
 
Copyright © AirNav, LLC. All rights reserved. Privacy Policy  Contact